Date,TemperatureHighF,TemperatureAvgF,TemperatureLowF,DewpointHighF,DewpointAvgF,DewpointLowF,HumidityHigh,HumidityAvg,HumidityLow,PressureMaxIn,PressureMinIn,WindSpeedMaxMPH,WindSpeedAvgMPH,GustSpeedMaxMPH,PrecipitationSumIn
2013-9-1,93,80,71,67,65,63,83,62,41,28.32,28.22,10,1,10,0.00
2013-9-2,96,81,69,65,62,54,81,56,30,28.30,28.19,11,1,11,0.00
2013-9-3,99,83,70,61,57,54,68,45,25,28.29,28.21,10,1,11,0.00
2013-9-4,102,84,71,57,54,50,57,39,19,28.32,28.21,10,0,10,0.00
2013-9-5,102,85,70,56,51,46,50,33,19,28.29,28.20,10,0,10,0.00
2013-9-6,103,85,70,52,48,44,45,30,15,28.28,28.17,11,1,11,0.00
2013-9-7,101,83,69,54,44,33,40,27,15,28.28,28.17,13,1,13,0.00
2013-9-8,97,80,68,50,44,39,48,29,16,28.24,28.12,10,1,10,0.00
2013-9-9,92,77,66,54,50,43,66,40,22,28.19,28.09,10,1,10,0.00
2013-9-10,86,71,58,56,50,43,85,53,24,28.30,28.17,11,1,11,0.00
2013-9-11,85,70,57,57,53,48,79,58,31,28.35,28.27,13,1,14,0.00
2013-9-12,94,74,59,56,48,37,79,45,16,28.31,28.20,9,1,11,0.00
2013-9-13,95,79,65,53,46,40,43,33,22,28.23,28.05,10,1,10,0.00
2013-9-14,100,82,68,53,49,45,47,34,19,28.12,28.02,9,0,9,0.00
2013-9-15,100,82,68,52,47,40,44,32,14,28.17,28.08,10,1,10,0.00
2013-9-16,98,80,66,48,42,38,46,29,15,28.22,28.11,10,1,10,0.00
2013-9-17,87,72,59,53,45,39,55,40,20,28.19,28.09,10,1,11,0.00
2013-9-18,84,70,57,57,49,40,76,50,29,28.17,28.09,10,1,11,0.00
2013-9-19,93,72,57,59,53,48,81,57,24,28.19,28.09,10,1,10,0.00
2013-9-20,77,64,54,61,57,53,98,81,56,28.25,28.17,12,2,14,0.00
2013-9-21,78,64,57,57,55,51,93,75,42,28.28,28.14,12,1,12,0.00
2013-9-22,78,64,54,54,43,36,89,50,22,28.24,28.14,16,2,16,0.00
2013-9-23,93,74,60,42,38,33,47,30,15,28.28,28.20,10,1,10,0.00
2013-9-24,90,73,59,46,37,29,47,29,12,28.31,28.20,11,1,13,0.00
2013-9-25,76,65,56,55,50,43,77,60,45,28.21,28.05,12,1,12,0.00
2013-9-26,71,61,55,46,35,26,61,39,19,28.27,28.08,20,3,21,0.00
2013-9-27,78,65,53,32,27,23,43,26,13,28.39,28.26,16,2,16,0.00
2013-9-28,88,68,54,35,27,23,40,22,9,28.43,28.32,8,0,8,0.00
2013-9-29,90,70,53,36,28,21,34,22,9,28.44,28.32,9,0,9,0.00
2013-9-30,89,73,57,43,37,31,42,29,15,28.37,28.21,16,1,16,0.00